EN

Hourly Weather Aba-el-Baul

Today, 29 November, Sunday

Time Temperature Precipitation Wind Pressure Humidity
00:00 +23°C° 0 mm 4 mps 758 mmHg 73%
01:00 +23°C° 0 mm 4 mps 757 mmHg 74%
02:00 +24°C° 0 mm 3 mps 757 mmHg 75%
03:00 +23°C° 0 mm 4 mps 757 mmHg 75%
04:00 +23°C° 0 mm 4 mps 757 mmHg 76%
05:00 +23°C° 0 mm 4 mps 757 mmHg 78%
06:00 +22°C° 0 mm 4 mps 758 mmHg 79%
07:00 +25°C° 0 mm 5 mps 758 mmHg 71%
08:00 +27°C° 0 mm 5 mps 759 mmHg 63%
09:00 +28°C° 0 mm 6 mps 759 mmHg 54%
10:00 +29°C° 0 mm 5 mps 759 mmHg 49%
11:00 +30°C° 0 mm 5 mps 758 mmHg 43%
12:00 +30°C° 0 mm 5 mps 758 mmHg 37%
13:00 +30°C° 0 mm 4 mps 757 mmHg 36%
14:00 +30°C° 0 mm 4 mps 757 mmHg 34%
15:00 +30°C° 0 mm 4 mps 757 mmHg 33%
16:00 +29°C° 0 mm 4 mps 757 mmHg 40%
17:00 +27°C° 0 mm 4 mps 757 mmHg 46%
18:00 +25°C° 0 mm 3 mps 757 mmHg 53%
19:00 +25°C° 0 mm 3 mps 757 mmHg 56%
20:00 +24°C° 0 mm 3 mps 757 mmHg 58%
21:00 +24°C° 0 mm 3 mps 758 mmHg 61%
22:00 +24°C° 0 mm 3 mps 757 mmHg 62%
23:00 +24°C° 0 mm 2 mps 757 mmHg 64%

Tomorrow, 30 November, Monday

Time Temperature Precipitation Wind Pressure Humidity
00:00 +24°C° 0 mm 2 mps 757 mmHg 66%
01:00 +23°C° 0 mm 2 mps 757 mmHg 70%
02:00 +21°C° 0 mm 2 mps 757 mmHg 75%
03:00 +21°C° 0 mm 2 mps 757 mmHg 80%
04:00 +21°C° 0 mm 1 mps 757 mmHg 81%
05:00 +21°C° 0 mm 1 mps 758 mmHg 83%
06:00 +21°C° 0 mm 1 mps 758 mmHg 85%
07:00 +23°C° 0 mm 1 mps 758 mmHg 76%
08:00 +25°C° 0 mm 1 mps 759 mmHg 67%
09:00 +27°C° 0 mm 1 mps 759 mmHg 59%
10:00 +28°C° 0 mm 1 mps 759 mmHg 53%
11:00 +29°C° 0 mm 1 mps 758 mmHg 47%
12:00 +30°C° 0 mm 1 mps 758 mmHg 41%
13:00 +30°C° 0 mm 2 mps 758 mmHg 40%
14:00 +30°C° 0 mm 2 mps 757 mmHg 40%
15:00 +30°C° 0 mm 3 mps 757 mmHg 40%
16:00 +28°C° 0 mm 3 mps 757 mmHg 47%
17:00 +27°C° 0 mm 3 mps 757 mmHg 54%
18:00 +25°C° 0 mm 2 mps 757 mmHg 61%
19:00 +24°C° 0 mm 2 mps 757 mmHg 65%
20:00 +24°C° 0 mm 2 mps 758 mmHg 69%
21:00 +23°C° 0 mm 2 mps 758 mmHg 72%
22:00 +23°C° 0 mm 2 mps 758 mmHg 73%
23:00 +23°C° 0 mm 2 mps 758 mmHg 75%

Day after tomorrow, 1 December, Tuesday

Time Temperature Precipitation Wind Pressure Humidity
00:00 +21°C° 0 mm 2 mps 757 mmHg 76%
01:00 +21°C° 0 mm 2 mps 757 mmHg 75%
02:00 +21°C° 0 mm 2 mps 757 mmHg 74%
03:00 +21°C° 0 mm 2 mps 757 mmHg 73%
04:00 +21°C° 0 mm 2 mps 757 mmHg 75%
05:00 +20°C° 0 mm 2 mps 758 mmHg 77%
06:00 +20°C° 0 mm 2 mps 758 mmHg 80%
07:00 +23°C° 0 mm 2 mps 758 mmHg 74%
08:00 +25°C° 0 mm 2 mps 759 mmHg 68%
09:00 +26°C° 0 mm 2 mps 759 mmHg 62%
10:00 +27°C° 0 mm 2 mps 759 mmHg 58%
11:00 +28°C° 0 mm 2 mps 758 mmHg 55%
12:00 +29°C° 0 mm 2 mps 758 mmHg 51%
13:00 +29°C° 0 mm 3 mps 757 mmHg 52%
14:00 +29°C° 0 mm 4 mps 757 mmHg 53%
15:00 +29°C° 0 mm 4 mps 756 mmHg 54%
16:00 +27°C° 0 mm 4 mps 757 mmHg 61%
17:00 +26°C° 0 mm 4 mps 757 mmHg 67%
18:00 +24°C° 0 mm 3 mps 758 mmHg 74%
19:00 +24°C° 0 mm 3 mps 758 mmHg 77%
20:00 +22°C° 0 mm 3 mps 758 mmHg 80%
21:00 +22°C° 0 mm 3 mps 758 mmHg 83%
22:00 +21°C° 0 mm 2 mps 758 mmHg 84%
23:00 +21°C° 0 mm 2 mps 757 mmHg 85%

2 December, Wednesday

Time Temperature Precipitation Wind Pressure Humidity
00:00 +20°C° 0 mm 2 mps 757 mmHg 86%
01:00 +20°C° 0 mm 2 mps 757 mmHg 86%
02:00 +21°C° 0 mm 1 mps 757 mmHg 86%
03:00 +21°C° 0 mm 1 mps 757 mmHg 86%
04:00 +21°C° 0 mm 1 mps 757 mmHg 86%
05:00 +21°C° 0 mm 1 mps 758 mmHg 86%
06:00 +21°C° 0 mm 1 mps 758 mmHg 87%
07:00 +22°C° 0 mm 1 mps 758 mmHg 79%
08:00 +24°C° 0 mm 1 mps 759 mmHg 72%
09:00 +26°C° 0 mm 1 mps 759 mmHg 65%
10:00 +27°C° 0 mm 1 mps 758 mmHg 57%
11:00 +29°C° 0 mm 2 mps 758 mmHg 50%
12:00 +30°C° 0 mm 2 mps 757 mmHg 42%
13:00 +30°C° 0 mm 3 mps 757 mmHg 43%
14:00 +30°C° 0 mm 3 mps 756 mmHg 43%
15:00 +30°C° 0 mm 4 mps 756 mmHg 44%
16:00 +28°C° 0 mm 3 mps 756 mmHg 53%
17:00 +26°C° 0 mm 3 mps 756 mmHg 62%
18:00 +24°C° 0 mm 3 mps 757 mmHg 72%
19:00 +24°C° 0 mm 3 mps 757 mmHg 72%
20:00 +24°C° 0 mm 2 mps 757 mmHg 73%
21:00 +24°C° 0 mm 2 mps 758 mmHg 73%
22:00 +23°C° 0 mm 2 mps 757 mmHg 75%
23:00 +23°C° 0 mm 2 mps 757 mmHg 77%

3 December, Thursday

Time Temperature Precipitation Wind Pressure Humidity
00:00 +23°C° 0 mm 2 mps 757 mmHg 78%
01:00 +23°C° 0 mm 2 mps 757 mmHg 79%
02:00 +23°C° 0 mm 2 mps 757 mmHg 80%
03:00 +21°C° 0 mm 3 mps 757 mmHg 82%
04:00 +21°C° 0 mm 2 mps 757 mmHg 82%
05:00 +21°C° 0 mm 2 mps 757 mmHg 82%
06:00 +21°C° 0 mm 2 mps 758 mmHg 83%
07:00 +24°C° 0 mm 3 mps 758 mmHg 73%
08:00 +26°C° 0 mm 3 mps 759 mmHg 64%
09:00 +28°C° 0 mm 4 mps 759 mmHg 54%
10:00 +29°C° 0 mm 4 mps 759 mmHg 50%
11:00 +30°C° 0 mm 3 mps 758 mmHg 45%
12:00 +31°C° 0 mm 3 mps 757 mmHg 41%
13:00 +31°C° 0 mm 3 mps 757 mmHg 40%
14:00 +31°C° 0 mm 3 mps 757 mmHg 40%
15:00 +31°C° 0 mm 3 mps 756 mmHg 40%
16:00 +29°C° 0 mm 3 mps 757 mmHg 47%
17:00 +27°C° 0 mm 3 mps 757 mmHg 54%
18:00 +26°C° 0 mm 3 mps 757 mmHg 61%
19:00 +25°C° 0 mm 3 mps 757 mmHg 63%
20:00 +25°C° 0 mm 3 mps 757 mmHg 65%
21:00 +24°C° 0 mm 3 mps 758 mmHg 67%
22:00 +24°C° 0 mm 3 mps 757 mmHg 69%
23:00 +24°C° 0 mm 3 mps 757 mmHg 70%

4 December, Friday

Time Temperature Precipitation Wind Pressure Humidity
00:00 +22°C° 0 mm 3 mps 757 mmHg 72%
01:00 +22°C° 0 mm 3 mps 757 mmHg 75%
02:00 +22°C° 0 mm 3 mps 757 mmHg 77%
03:00 +22°C° 0 mm 3 mps 756 mmHg 80%
04:00 +21°C° 0 mm 3 mps 757 mmHg 82%
05:00 +21°C° 0 mm 2 mps 757 mmHg 83%
06:00 +21°C° 0 mm 2 mps 757 mmHg 85%
07:00 +24°C° 0 mm 3 mps 757 mmHg 75%
08:00 +26°C° 0 mm 3 mps 758 mmHg 65%
09:00 +28°C° 0 mm 3 mps 758 mmHg 56%
10:00 +29°C° 0 mm 3 mps 758 mmHg 50%
11:00 +30°C° 0 mm 3 mps 757 mmHg 44%
12:00 +33°C° 0 mm 3 mps 757 mmHg 38%
13:00 +32°C° 0 mm 4 mps 756 mmHg 41%
14:00 +32°C° 0 mm 5 mps 756 mmHg 43%
15:00 +32°C° 0 mm 6 mps 756 mmHg 46%
16:00 +29°C° 0 mm 6 mps 756 mmHg 56%
17:00 +27°C° 0 mm 6 mps 756 mmHg 65%
18:00 +25°C° 0 mm 5 mps 756 mmHg 75%
19:00 +23°C° 0 mm 5 mps 757 mmHg 79%
20:00 +23°C° 0 mm 5 mps 757 mmHg 82%
21:00 +22°C° 0 mm 4 mps 757 mmHg 86%
22:00 +22°C° 0 mm 4 mps 756 mmHg 85%
23:00 +22°C° 0 mm 3 mps 756 mmHg 84%
Show more